Weather History for Miramar MCAS, CA

Change the Weather History Date:

Tuesday, January 21, 2014

  Actual Average Record
Temperature  
Mean Temperature 62 °F -  
Max Temperature 77 °F 64 °F 78 °F (2013)
Min Temperature 46 °F 44 °F 39 °F (2002)
Degree Days  
Heating Degree Days 4    
Growing Degree Days 12 (Base 50)    
Moisture  
Dew Point 25 °F    
Average Humidity 31    
Maximum Humidity 80    
Minimum Humidity 8    
Precipitation  
Precipitation 0.00 in - - ()
Sea Level Pressure  
Sea Level Pressure 30.09 in    
Wind  
Wind Speed 4 mph (North)    
Max Wind Speed 8 mph    
Max Gust Speed -    
Visibility 10 miles    
Events      
Averages and records for this station are not official NWS values.
T = Trace of Precipitation, MM = Missing Value Source: NWS Daily Summary

Daily Weather History Graph

Daily Weather History Graph

Search for Another Location

Airport:

Trip Planner

Search our weather history database for the weather conditions in past years. The results will help you decide how hot, cold, wet, or windy it might be!

Date:

Astronomy

Jan. 21, 2014 Rise Set
Actual Time 6:49 AM PST 5:10 PM PST
Civil Twilight 6:22 AM PST 5:37 PM PST
Nautical Twilight 5:52 AM PST 6:07 PM PST
Astronomical Twilight 5:23 AM PST 6:36 PM PST
Moon 10:27 PM PST (1/21) 9:40 AM PST (1/21)
Length of Visible Light 11h 14m
Length of Day
10h 21m
Waning Gibbous, 73% of the Moon is Illuminated
Jan 21
Waning Gibbous
Jan 23
Last Quarter
Jan 30
New
Feb 6
First Quarter
Feb 14
Full

Hourly Weather History & Observations

Time (PST) Temp. Windchill Dew Point Humidity Pressure Visibility Wind Dir Wind Speed Gust Speed Precip Events Conditions
12:55 AM 46.9 °F - 26.1 °F 44% 30.14 in 10.0 mi ENE 3.5 mph - N/A   Partly Cloudy
1:55 AM 46.0 °F 42.5 °F 26.1 °F 46% 30.14 in 10.0 mi NE 6.9 mph - N/A   Partly Cloudy
2:55 AM 48.0 °F - 24.1 °F 39% 30.12 in 10.0 mi Calm Calm - N/A   Partly Cloudy
3:55 AM 48.9 °F - 21.0 °F 33% 30.11 in 10.0 mi NNE 3.5 mph - N/A   Partly Cloudy
4:55 AM 51.1 °F - 21.0 °F 31% 30.11 in 10.0 mi NE 5.8 mph - N/A   Partly Cloudy
5:55 AM 54.0 °F - 15.1 °F 22% 30.12 in 10.0 mi ENE 6.9 mph - N/A   Scattered Clouds
6:55 AM 55.9 °F - 15.1 °F 20% 30.12 in 10.0 mi NE 5.8 mph - N/A   Mostly Cloudy
7:55 AM 61.0 °F - 12.0 °F 15% 30.12 in 10.0 mi East 4.6 mph - N/A   Mostly Cloudy
8:55 AM 70.0 °F - 10.0 °F 10% 30.14 in 10.0 mi Calm Calm - N/A   Mostly Cloudy
9:55 AM 73.9 °F - 12.9 °F 10% 30.15 in 10.0 mi Calm Calm - N/A   Mostly Cloudy
10:55 AM 75.0 °F - 10.0 °F 8% 30.11 in 10.0 mi North 5.8 mph - N/A   Mostly Cloudy
11:55 AM 75.9 °F - 12.0 °F 9% 30.08 in 10.0 mi NNW 3.5 mph - N/A   Mostly Cloudy
12:55 PM 77.0 °F - 15.1 °F 10% 30.05 in 10.0 mi NNW 8.1 mph - N/A   Mostly Cloudy
1:55 PM 75.9 °F - 16.0 °F 10% 30.04 in 10.0 mi NW 6.9 mph - N/A   Mostly Cloudy
2:55 PM 73.9 °F - 24.1 °F 16% 30.04 in 10.0 mi NW 5.8 mph - N/A   Mostly Cloudy
3:55 PM 71.1 °F - 37.0 °F 29% 30.04 in 10.0 mi NNW 5.8 mph - N/A   Mostly Cloudy
4:55 PM 68.0 °F - 33.1 °F 27% 30.04 in 10.0 mi NW 5.8 mph - N/A   Mostly Cloudy
5:55 PM 62.1 °F - 34.0 °F 35% 30.06 in 10.0 mi WNW 3.5 mph - N/A   Mostly Cloudy
6:55 PM 61.0 °F - 36.0 °F 39% 30.08 in 10.0 mi West 8.1 mph - N/A   Mostly Cloudy
7:55 PM 61.0 °F - 36.0 °F 39% 30.07 in 10.0 mi North 3.5 mph - N/A   Overcast
8:55 PM 57.0 °F - 37.0 °F 47% 30.07 in 10.0 mi SSE 3.5 mph - N/A   Overcast
9:55 PM 57.9 °F - 35.1 °F 42% 30.08 in 10.0 mi SSE 5.8 mph - N/A   Overcast
10:55 PM 57.9 °F - 48.9 °F 72% 30.06 in 9.0 mi ESE 5.8 mph - N/A   Overcast
11:55 PM 55.9 °F - 50.0 °F 80% 30.06 in 6.0 mi SSW 4.6 mph - N/A   Haze